Total_Precipitation_Accumulation
0.85 0.95 1.33 1.25 1.03 0.97 0.97 0.98 1.00 1.08 0.97 0.91 0.95 0.95 0.98 0.92 0.89 0.91 0.98 1.09 1.19 1.31 1.39 1.57 1.64 1.48 1.35 1.24 1.08 0.95 0.90 0.93 0.99 1.07 1.18 1.22 1.30 1.48 1.71 1.70 1.62 1.12 1.11
0.64 0.77 1.11 1.01 0.88 0.81 0.79 0.86 0.97 0.99 0.97 0.94 0.94 0.96 1.09 1.03 0.91 0.91 1.05 1.16 1.24 1.34 1.46 1.57 1.44 1.22 1.07 0.98 0.85 0.81 0.90 1.04 1.16 1.27 1.36 1.23 1.40 1.60 1.67 1.55 1.57 1.04 0.98
0.49 0.53 0.69 0.79 0.73 0.73 0.73 0.77 0.87 0.86 0.88 0.92 0.98 0.95 1.08 1.09 1.03 1.01 1.08 1.15 1.30 1.45 1.42 1.37 1.13 0.91 0.80 0.77 0.73 0.79 0.92 1.11 1.39 1.59 1.74 1.24 1.10 1.51 1.48 1.33 1.11 0.81 0.84
0.32 0.37 0.38 0.57 0.58 0.60 0.63 0.70 0.74 0.75 0.77 0.84 0.96 0.95 1.01 1.04 1.00 1.01 1.12 1.21 1.35 1.32 1.20 1.16 0.99 0.78 0.69 0.67 0.67 0.76 0.91 1.11 1.50 1.89 1.97 1.19 0.86 1.07 1.09 0.90 0.79 0.75 0.75
0.25 0.30 0.36 0.42 0.45 0.49 0.54 0.62 0.62 0.63 0.67 0.77 0.86 0.96 1.02 1.02 1.03 1.09 1.17 1.27 1.23 1.07 1.02 1.04 0.88 0.73 0.63 0.58 0.64 0.78 0.92 1.18 1.48 1.64 1.39 1.27 1.20 1.02 0.83 0.73 0.75 0.73 0.71
0.24 0.29 0.36 0.42 0.38 0.41 0.47 0.50 0.54 0.57 0.64 0.71 0.76 0.92 1.02 1.13 1.15 1.14 1.13 1.10 1.01 0.91 0.91 0.82 0.71 0.64 0.56 0.55 0.64 0.78 1.00 1.28 1.34 0.94 0.91 1.15 1.06 0.93 0.77 0.79 0.75 0.67 0.63
0.31 0.34 0.37 0.41 0.36 0.37 0.43 0.46 0.52 0.55 0.61 0.70 0.76 0.84 0.97 1.10 1.13 1.06 0.95 0.88 0.85 0.78 0.73 0.72 0.68 0.58 0.57 0.58 0.67 0.80 1.05 1.26 1.12 0.78 0.87 1.14 0.95 0.72 0.75 0.80 0.88 0.78 0.59
0.42 0.44 0.48 0.51 0.47 0.43 0.43 0.46 0.50 0.55 0.67 0.74 0.79 0.84 0.88 0.92 0.94 0.89 0.83 0.80 0.78 0.70 0.68 0.67 0.62 0.56 0.56 0.59 0.66 0.77 0.88 0.88 0.79 0.74 0.77 0.90 0.69 0.58 0.63 0.75 0.91 0.88 0.80
0.62 0.73 0.70 0.59 0.58 0.61 0.65 0.66 0.63 0.69 0.78 0.79 0.85 0.83 0.85 0.86 0.87 0.86 0.83 0.78 0.74 0.69 0.68 0.62 0.55 0.52 0.53 0.59 0.63 0.70 0.76 0.81 0.83 0.89 0.75 0.81 0.58 0.57 0.65 0.70 0.81 0.89 0.89
0.78 0.79 0.78 0.67 0.66 0.63 0.66 0.75 0.76 0.80 0.85 0.84 0.80 0.78 0.78 0.76 0.78 0.79 0.73 0.82 0.78 0.79 0.80 0.77 0.68 0.57 0.61 0.67 0.68 0.75 0.80 0.76 0.77 0.82 0.98 0.81 0.64 0.72 0.80 0.78 0.81 0.90 0.97
1.20 1.10 0.95 0.67 0.62 0.59 0.55 0.60 0.75 0.82 0.89 0.95 0.89 0.81 0.94 1.09 1.06 1.16 1.01 1.21 1.08 1.07 1.05 1.05 0.97 0.94 0.91 0.80 0.87 1.01 0.93 0.79 1.00 1.11 1.01 0.74 0.79 1.03 1.16 0.99 0.92 0.93 0.99
1.72 1.53 1.27 0.97 0.78 0.73 0.67 0.77 0.90 0.93 1.05 1.12 1.25 1.23 1.53 1.79 1.71 1.31 1.42 1.71 1.70 1.63 1.55 1.60 1.71 1.52 1.32 1.13 1.44 1.70 1.11 0.97 1.15 1.14 1.06 1.10 1.29 1.59 1.74 1.46 1.23 1.08 1.02
1.85 1.73 1.62 1.36 1.13 0.94 1.02 1.05 1.16 1.32 1.62 1.48 1.41 1.53 1.93 1.78 1.51 1.39 1.58 1.91 2.18 2.10 2.03 2.11 2.25 1.88 1.94 2.14 2.26 2.26 1.65 1.40 1.48 1.42 1.30 1.47 1.72 2.07 2.33 2.09 1.71 1.44 1.25
2.37 2.18 1.97 1.81 1.59 1.56 1.48 1.39 1.35 1.41 1.56 1.57 1.74 1.62 1.97 2.08 1.94 1.92 2.15 2.19 2.39 2.59 2.99 2.78 2.88 2.74 2.65 2.50 2.50 2.49 2.26 2.16 2.02 2.12 2.12 1.97 2.07 2.34 2.72 2.74 2.36 1.97 1.68
2.79 2.60 2.45 2.32 2.25 2.23 2.11 1.94 1.56 1.63 1.65 1.72 1.98 2.05 2.16 2.38 2.45 2.52 2.51 2.45 2.26 2.60 3.04 3.30 3.00 3.28 3.28 2.86 2.54 2.42 2.39 2.34 2.53 2.73 2.57 2.70 2.65 2.64 2.94 3.06 2.89 2.64 2.43
2.94 3.07 3.17 3.04 2.94 2.94 2.75 2.60 2.33 2.11 2.24 2.19 2.30 2.49 2.63 2.85 3.02 3.06 2.90 2.80 2.48 2.48 2.78 3.03 3.06 3.43 3.27 3.08 2.46 2.40 2.35 2.47 2.65 2.67 2.63 3.09 3.05 2.80 2.84 3.09 3.23 3.12 2.92
3.10 3.56 3.84 3.88 3.80 3.77 3.65 3.35 2.99 2.83 2.85 3.04 3.18 3.17 3.11 3.25 3.52 3.38 3.17 2.81 2.62 2.65 2.83 2.79 2.84 2.96 2.86 2.77 2.51 2.56 2.53 2.48 2.43 2.49 2.62 2.80 2.70 2.51 2.57 2.76 3.12 3.37 3.52
3.42 3.99 4.29 4.44 4.67 4.55 4.52 4.21 3.71 3.48 3.42 3.44 3.51 3.53 3.41 3.45 3.34 3.34 3.04 2.65 2.69 2.72 2.75 2.82 2.69 2.76 2.79 2.81 2.76 2.54 2.60 2.57 2.20 2.23 2.34 2.32 2.41 2.19 2.34 2.54 2.74 3.01 3.59
3.77 4.42 4.82 5.31 5.60 5.49 5.22 4.76 4.31 4.18 3.99 3.81 3.78 3.72 3.57 3.33 3.16 3.30 3.01 2.86 2.80 2.76 2.62 2.39 2.76 2.93 2.94 2.93 2.61 2.48 2.26 2.08 1.91 1.75 1.76 1.64 1.83 2.02 2.23 2.33 2.56 2.71 3.32
3.85 4.58 5.21 5.78 5.99 5.76 5.23 4.86 4.69 4.47 4.13 3.89 3.63 3.43 3.20 3.07 2.86 3.06 2.79 2.71 2.82 2.89 2.70 2.67 2.94 3.00 2.73 2.78 2.42 2.31 2.12 1.76 1.67 1.60 1.47 1.45 1.45 1.42 1.76 2.21 2.62 2.39 2.78
4.07 4.79 5.40 5.82 5.81 5.63 5.30 4.94 4.66 4.15 3.82 3.54 3.26 3.04 2.83 2.58 2.50 2.85 2.59 2.85 2.73 2.63 2.46 2.41 2.53 2.58 2.33 2.55 2.77 2.30 1.80 1.54 1.48 1.39 1.38 1.44 1.38 1.46 1.78 2.23 2.52 2.68 2.54
3.89 4.44 4.85 4.84 4.52 4.40 4.42 4.34 4.09 4.07 3.88 3.73 3.46 3.24 2.86 2.69 2.59 2.44 2.61 2.43 2.39 2.47 2.29 2.18 2.38 2.37 2.14 2.48 2.60 2.56 1.99 1.77 1.53 1.12 1.25 1.37 1.46 1.66 1.73 1.89 2.28 2.60 2.52
3.39 3.70 3.73 3.62 3.45 3.50 3.57 3.56 3.64 3.83 3.81 3.74 3.58 3.31 3.01 2.87 2.76 2.64 2.52 2.33 2.26 2.09 2.17 2.21 2.28 2.32 2.24 2.24 2.29 2.49 2.13 1.76 1.49 1.17 1.18 1.40 1.70 1.90 1.88 1.96 1.99 2.20 2.27
2.64 2.74 2.73 2.80 2.83 2.86 2.93 2.96 2.85 2.86 3.03 3.23 3.43 3.48 3.41 3.15 2.91 2.64 2.47 2.25 2.08 1.95 2.13 1.87 1.97 2.26 2.36 2.10 2.11 2.08 2.00 2.06 1.99 1.62 1.31 1.24 1.50 1.71 1.81 1.72 1.77 1.92 2.12
1.88 1.98 2.05 2.33 2.66 2.78 2.87 2.96 2.85 2.56 2.53 2.57 2.70 2.85 2.85 2.82 2.66 2.37 2.25 2.18 2.04 1.91 1.91 1.87 2.14 2.15 2.12 2.07 2.13 2.12 2.21 2.34 2.16 2.00 1.68 1.59 1.70 1.70 1.65 1.62 1.67 1.80 2.02
1.48 1.63 1.84 2.14 2.56 2.79 2.85 2.78 2.73 2.61 2.58 2.50 2.50 2.54 2.42 2.39 2.32 2.16 2.08 2.13 1.99 1.86 1.86 1.86 2.00 2.06 2.16 2.25 2.26 2.23 2.29 2.26 2.28 2.47 2.15 1.94 1.89 1.68 1.65 1.67 1.76 1.88 2.01